Powrót do katalogu

COSMOS 1249 COOLANT

LostLEO
NORAD 26511·DEBRIS·🇷🇺 Russia

Wystrzelony Mar 5, 1981 z Baikonur Cosmodrome

Loading…

Następne Przeloty (najbliższe 24 godziny)

TLE

NieaktualneSource: Space-Track

Epoka: Jul 7, 2026, 20:38 UTC

1 26511U 81021N   26188.85978101  .00000058  00000-0  11493-3 0  9995
2 26511  64.9597 268.4189 0063436 255.9844 216.4474 13.91815337650611

Śledź COSMOS 1249 COOLANT w czasie rzeczywistym z AllMySat

Download on the App Store